Starlink 5399

operational
NORAD ID: 54788 Int'l Des: 2022-175 Owner: SPXS Country: US Constellation: starlink
LEOCIRCULAR

About Starlink 5399

Description loading...

Live Position

Loading 3D Globe...

Upcoming Passes

Altitude History

Altitude vs Time

uPlot chart will show altitude changes over time

Two-Line Element Set

1 54788U 22175AG 25353.48781702 .00001618 00000-0 11971-3 0 9992
2 54788 53.2191 29.0284 0001691 73.8105 286.3073 15.08841878168027
Epoch: Dec 19, 2025 • Age: 11 hours

Current Status

Altitude 548.7 km
Velocity 7.59 km/s
Sub-Earth Point -28.35°S, 65.6°W
Launch Date Dec 17, 2022
Age 3 years
Type internet

Technical Details

Classification Payload
Mass 305.00 kg
Dry Mass 290.00 kg
Total Mass 305.00 kg
Length 0.20 m
Diameter 2.80 m
Span 9.00 m
Shape Box + pan
Manufacturer SPXS
Bus Type Starlink
Phase Status In Orbit
Owner/State SPXS/US

Large Constellations

Loading constellations...